SCP
0 0 0 0 0 0 0 0 0 0 0 0 0 0 0 0 0 0 0 0 0 0 0 0 0 1 2 1 2 1 0 0 0 0 0 0 0 0 0 0 0 0 0 0
0 0 0 0 0 0 0 0 0 0 0 0 0 0 0 0 0 0 0 0 0 0 0 0 0 2 3 3 3 2 1 0 0 0 0 0 0 0 0 0 0 0 0 0
0 0 0 0 0 0 0 0 0 0 0 0 0 0 0 0 0 0 0 0 0 0 0 0 1 3 3 3 3 2 1 0 0 1 0 0 0 0 0 0 0 0 0 0
0 0 0 0 0 0 0 0 0 0 0 0 0 0 0 0 0 0 0 0 0 0 0 0 0 2 2 2 2 3 0 1 0 0 0 0 -0 0 0 0 0 0 0 0
0 0 0 0 0 0 0 0 0 0 0 0 0 0 0 0 0 0 0 0 0 0 0 0 1 1 1 1 2 2 0 0 0 0 0 0 0 0 0 0 0 0 0 0
0 0 0 0 0 0 0 0 0 0 0 0 0 0 0 0 0 0 0 0 0 0 0 0 0 1 1 1 2 2 1 0 0 0 0 0 0 0 0 0 0 0 0 0
0 0 0 0 0 0 0 0 0 0 0 0 0 0 0 0 0 0 0 0 0 1 1 1 1 1 1 1 1 0 0 0 0 0 0 0 0 0 0 0 0 0 0 0
0 0 0 0 0 0 0 0 0 0 0 0 0 0 0 0 0 0 0 0 1 1 1 1 1 0 0 0 0 0 0 0 0 0 0 0 0 0 0 0 -0 0 0 0
0 0 0 0 0 0 0 0 0 0 0 0 1 1 0 0 0 1 1 1 0 0 0 0 0 0 0 0 0 0 0 0 0 0 0 0 0 0 0 0 0 0 0 0
0 0 0 0 0 0 0 0 0 0 0 0 0 2 2 2 1 1 0 0 0 0 0 0 0 0 0 0 0 0 0 0 0 0 0 0 0 0 0 0 0 0 0 0
0 0 0 0 0 0 0 0 0 0 0 0 0 0 1 1 1 -0 -0 0 0 0 0 0 0 0 0 0 0 0 0 0 0 0 0 0 0 0 0 0 0 0 0 0
0 0 0 0 0 0 0 0 0 0 0 0 0 0 0 0 1 0 0 -0 -0 0 0 0 0 0 0 0 0 0 0 0 0 0 0 0 0 0 0 0 0 0 0 0
0 0 0 0 0 0 0 0 0 0 0 0 0 0 0 0 0 0 0 0 0 0 0 0 0 0 0 0 0 0 0 0 0 0 0 0 0 0 0 0 0 0 0 0
0 0 0 0 0 0 0 0 0 0 0 0 0 0 0 0 0 0 0 0 0 0 0 0 0 0 0 0 0 0 0 0 0 0 0 0 0 0 0 0 0 0 0 0
0 0 0 0 0 0 0 0 0 0 0 0 0 0 0 0 0 0 0 0 0 0 0 0 0 0 0 0 0 0 0 0 0 0 0 0 0 0 0 0 0 0 0 0
0 0 0 0 0 0 0 0 0 0 0 0 0 0 0 0 0 0 0 0 0 0 0 0 0 0 0 0 0 0 0 0 0 0 0 0 0 0 0 0 0 0 0 0
0 0 0 0 0 0 0 0 0 0 0 0 0 0 0 0 0 0 0 0 0 0 0 0 0 0 0 0 0 0 0 0 0 0 0 0 0 0 0 0 0 0 0 0
0 0 0 0 0 0 0 0 0 0 0 0 0 0 0 0 0 0 0 0 0 0 0 0 0 0 0 0 0 0 0 0 0 0 0 0 0 0 0 0 0 0 0 0
0 0 0 0 0 0 0 0 0 0 0 0 0 0 0 0 0 0 0 0 0 0 0 0 0 0 0 0 0 0 0 0 0 0 0 0 0 0 0 0 0 0 0 0
0 0 0 0 0 0 0 0 0 0 0 0 0 0 0 0 0 0 0 0 0 0 0 0 0 0 0 0 0 0 0 0 0 0 0 0 0 0 0 0 0 0 0 0
0 0 0 0 0 0 0 0 0 0 0 0 0 0 0 0 0 0 0 0 0 0 0 0 0 0 0 0 0 0 0 0 0 0 0 0 0 0 0 0 0 0 0 0
0 0 0 0 0 0 0 0 0 -0 -0 -0 0 0 0 0 0 0 0 0 0 0 0 0 0 0 0 0 0 0 0 0 0 0 0 0 0 0 0 0 0 0 0 0
0 0 0 0 0 0 0 0 0 0 0 0 0 0 0 0 0 0 0 0 0 0 0 0 0 0 0 0 0 0 0 0 0 0 0 0 0 0 0 0 0 0 0 0
0 0 0 0 0 0 0 0 0 0 0 0 0 0 0 0 0 0 0 0 0 0 0 0 0 0 0 0 0 0 0 0 0 0 0 0 0 0 0 0 0 0 0 0
0 0 0 0 0 -0 0 0 0 0 0 0 0 0 0 0 0 0 0 0 0 0 0 0 0 0 0 0 0 0 0 0 0 0 0 0 0 0 0 0 0 0 0 0
0 0 0 0 0 0 -0 0 0 0 0 0 0 0 0 0 0 0 0 0 0 0 0 0 0 0 0 0 0 0 0 0 0 0 0 0 0 0 0 0 0 0 0 0
0 0 -0 0 0 0 0 0 0 -0 0 0 0 0 0 0 0 0 0 0 0 0 0 0 0 0 0 0 0 0 0 0 0 0 0 0 0 0 0 0 0 0 0 0
Wind_Speed_500mb
39 32 13 15 17 14 17 23 19 22 21 19 25 25 39 73 71 70 78 85 93 99 97 97 101 103 107 111 114 114 120 117 111 100 70 64 52 40 36 34 31 35 33 27
16 22 31 22 28 26 34 4 6 11 13 13 31 12 26 59 70 70 70 77 87 93 92 95 94 96 99 102 107 113 113 119 96 68 49 53 49 48 44 39 34 37 44 34
33 12 13 8 21 13 12 9 14 11 20 14 9 14 37 57 75 84 77 68 68 72 71 73 78 77 79 88 94 102 98 103 95 72 53 83 75 70 51 42 40 50 44 39
23 12 13 20 2 14 23 5 4 9 4 21 37 71 59 70 92 71 57 46 40 35 30 29 26 41 57 68 78 89 90 93 93 82 91 68 80 80 55 47 48 48 47 39
15 15 5 9 10 8 12 10 7 10 8 9 20 24 8 45 51 54 49 40 30 25 19 7 16 31 39 54 67 80 89 87 78 69 85 64 68 77 62 46 51 46 46 40
6 15 12 3 20 30 14 6 16 14 7 12 31 19 9 36 40 36 29 24 24 16 9 12 15 25 37 51 63 71 76 76 78 63 78 74 60 53 57 50 53 52 48 48
3 9 5 16 35 21 12 9 30 16 10 12 12 5 22 27 24 25 21 15 6 6 10 17 25 17 41 43 49 58 57 58 58 59 51 58 54 46 46 53 62 61 55 56
6 10 4 37 7 13 2 12 31 49 60 70 61 50 46 35 27 15 8 7 10 17 27 33 28 31 32 37 37 41 38 43 56 54 51 49 42 36 42 49 80 61 57 57
5 9 4 21 16 28 17 18 43 69 63 71 72 60 50 39 26 18 15 15 24 20 29 43 41 29 26 30 32 34 43 48 52 41 35 33 30 46 60 41 49 61 53 46
5 3 6 28 27 30 43 53 53 49 46 44 48 46 48 43 36 34 32 30 30 28 31 36 29 20 18 26 26 29 39 43 39 37 32 38 44 29 53 47 51 39 32 35
4 5 11 32 39 41 43 32 37 35 33 30 27 29 33 30 35 23 32 28 23 20 23 26 19 18 21 23 22 26 26 22 18 34 30 38 26 23 32 37 36 34 27 25
9 15 29 25 36 39 34 38 35 29 32 42 39 33 17 13 24 26 16 13 15 10 12 9 22 32 29 30 32 38 29 21 34 39 34 28 32 38 44 35 28 24 17 19
18 40 60 41 37 38 34 37 36 34 35 34 38 36 22 11 11 12 9 11 17 21 20 24 31 26 29 32 33 30 25 14 13 18 24 27 25 30 30 25 17 18 19 18
49 41 47 39 36 42 41 37 29 29 27 30 30 26 24 21 21 14 14 25 27 25 22 24 23 28 32 27 27 26 24 24 25 21 24 21 17 17 15 16 15 16 17 16
55 51 51 44 34 34 27 20 21 22 21 22 28 29 26 18 14 18 16 20 23 25 28 31 34 31 27 25 16 8 22 24 22 25 22 19 15 12 12 14 14 16 15 11
46 42 34 30 27 26 26 26 29 30 33 34 34 36 35 28 16 15 16 24 31 35 32 30 29 29 24 21 21 18 19 22 23 20 12 12 14 15 15 14 15 16 13 11
27 34 27 26 24 24 26 27 27 29 33 34 34 32 35 34 26 13 16 24 32 33 30 26 29 28 26 25 30 27 26 28 21 20 18 14 14 14 11 11 9 9 9 10
25 18 16 15 20 26 31 35 35 37 41 39 36 34 37 37 26 17 13 20 28 37 25 23 28 35 44 36 37 34 29 26 26 27 23 20 17 15 15 19 17 8 8 14
17 14 15 17 18 20 26 30 32 34 37 33 37 37 38 32 19 8 12 12 12 16 21 27 37 31 25 28 24 25 22 24 29 32 28 24 23 19 18 18 18 18 24 21
25 19 15 15 15 19 22 16 16 18 16 25 29 31 30 16 3 5 7 4 7 11 13 13 17 16 13 14 15 18 19 24 29 28 28 23 20 25 22 17 16 21 25 26
22 23 23 24 19 21 17 15 16 18 19 20 23 16 2 1 2 5 9 6 2 9 7 7 9 10 11 17 13 16 22 21 19 20 22 24 22 23 23 20 20 16 18 23
21 20 20 20 21 20 22 22 23 13 13 16 16 11 2 9 14 7 8 7 4 3 3 3 6 9 12 10 4 9 17 19 25 25 24 27 30 29 25 26 28 25 22 25
19 20 20 21 22 22 18 20 20 15 12 11 9 7 5 6 5 4 6 6 7 7 5 8 4 7 10 14 17 18 19 18 15 12 24 36 40 37 35 32 27 26 21 23
19 17 18 18 17 19 17 16 14 11 10 9 10 7 6 5 5 5 6 10 7 8 8 1 4 4 13 20 21 23 25 27 24 28 28 28 30 31 29 28 27 23 20 23
22 19 16 20 20 11 9 14 14 14 9 7 9 7 7 9 9 12 12 11 9 11 12 13 10 9 12 16 20 22 23 32 36 36 27 21 23 26 29 28 28 26 23 25
30 31 27 31 24 20 8 9 15 16 12 13 12 10 12 15 14 14 16 16 20 20 22 21 21 18 15 16 16 19 27 24 19 24 20 17 20 24 27 30 34 35 34 32
29 25 34 21 19 11 11 10 16 16 12 14 18 16 18 19 17 17 22 22 21 23 26 29 28 27 27 23 21 22 23 23 20 22 24 28 32 32 34 25 25 39 40 39
Wind_Direction_500mb
227 216 197 240 245 183 191 200 179 219 199 216 205 199 199 203 207 202 207 210 214 218 222 227 230 230 234 238 239 238 231 225 222 217 220 220 218 216 217 214 218 246 244 239
218 210 198 223 246 238 224 202 140 131 229 237 202 165 163 187 189 194 198 205 210 216 222 225 231 234 238 240 242 242 236 227 218 212 204 229 238 233 220 213 222 235 243 246
230 182 171 235 231 204 197 164 153 147 215 158 184 196 192 191 192 196 198 202 206 211 220 228 233 241 248 248 247 245 236 227 218 206 240 234 229 229 224 212 230 236 238 242
213 105 197 245 267 187 129 104 87 279 201 184 191 202 202 196 195 197 196 191 192 195 205 221 241 253 256 257 258 248 235 225 219 214 258 237 222 225 227 228 233 239 243 249
168 182 159 331 32 47 358 165 205 198 207 216 148 162 213 203 192 179 176 175 177 180 188 199 276 272 269 262 260 248 236 234 241 239 230 217 224 227 232 239 246 244 255 256
138 146 167 314 327 328 307 340 21 22 69 134 127 172 226 193 185 174 174 169 170 179 194 239 282 292 282 262 253 253 242 237 229 227 224 218 232 231 237 245 252 250 259 264
12 107 90 0 313 311 76 239 335 25 53 97 83 99 98 137 138 142 146 154 171 258 265 262 259 263 288 263 257 256 254 247 231 233 242 233 245 258 262 262 265 255 262 262
334 70 1 345 11 79 328 41 91 77 78 80 79 67 63 68 68 79 63 353 314 299 289 280 271 281 266 263 261 254 242 237 228 241 245 242 241 269 276 284 285 262 271 275
229 169 253 349 31 67 69 58 66 71 70 71 69 61 50 42 25 5 352 329 300 308 302 278 270 267 258 246 237 226 223 221 225 226 228 232 250 265 240 284 262 272 273 276
196 242 129 63 74 72 68 65 65 62 61 60 51 39 40 26 18 12 356 348 332 325 293 265 242 232 219 213 207 213 210 214 222 228 217 238 266 255 251 257 271 273 275 274
37 101 103 83 83 72 67 66 61 51 31 12 356 9 5 343 351 355 347 345 324 296 259 228 204 187 188 197 212 203 173 176 200 208 229 245 239 259 265 269 262 266 258 252
218 183 120 107 92 85 73 64 61 54 38 49 53 55 24 311 267 284 302 308 0 300 209 163 180 181 180 184 176 159 163 230 251 230 229 237 253 282 265 258 247 249 247 255
152 105 97 94 96 104 108 87 76 77 67 55 52 50 36 18 333 316 238 249 202 195 195 192 184 185 190 184 183 200 244 240 196 207 245 272 267 266 256 262 249 242 251 267
115 109 76 103 91 95 98 91 92 82 58 42 39 36 34 23 16 347 275 217 213 212 214 207 203 202 200 213 229 230 215 217 230 244 259 254 246 243 232 237 254 256 272 281
98 102 102 97 89 73 65 51 34 24 5 348 2 11 19 15 1 341 295 251 242 229 212 208 203 215 220 197 182 236 231 227 234 239 249 256 246 216 224 247 255 261 258 265
95 90 85 75 55 39 21 6 355 345 331 329 328 327 336 345 341 342 320 247 227 213 207 218 219 199 187 195 213 224 220 225 245 253 245 222 242 259 234 241 251 249 252 274
89 47 40 32 11 353 343 326 311 307 306 307 311 322 325 322 325 307 312 262 227 222 224 219 197 204 203 224 247 245 250 258 269 261 264 249 257 228 234 234 230 237 257 245
61 52 27 353 328 319 311 298 295 296 292 296 301 307 310 323 311 300 280 268 241 222 236 230 231 233 232 248 241 242 237 259 262 244 242 233 221 224 257 217 204 218 219 240
21 6 346 336 330 316 308 311 314 298 290 296 299 295 299 302 284 257 242 227 238 248 248 233 225 235 235 233 233 242 251 262 253 253 234 223 208 226 221 225 239 258 257 265
44 34 25 13 354 343 346 357 342 341 339 318 314 297 280 268 240 152 168 227 254 252 243 234 224 236 230 266 273 274 253 248 243 238 232 221 229 219 224 230 274 277 260 254
46 41 38 33 34 29 19 357 348 354 8 24 28 29 63 176 299 196 169 124 194 251 240 224 244 253 267 280 274 260 246 241 231 230 228 226 214 221 230 249 272 272 253 256
23 18 26 27 27 37 34 31 25 41 53 38 39 28 27 174 170 221 193 153 210 202 189 245 269 262 260 242 236 231 213 231 233 234 223 214 220 231 253 260 257 251 261 252
24 23 24 19 17 21 24 26 33 43 44 46 46 57 70 108 99 46 299 240 154 143 150 5 323 279 269 251 256 252 233 231 244 254 247 243 247 249 252 249 253 250 258 252
8 3 6 6 11 18 23 30 32 29 20 26 30 39 27 314 237 234 223 203 204 203 218 259 347 314 277 267 261 264 268 267 273 270 267 265 248 241 232 236 249 254 250 239
3 0 345 342 341 335 5 15 10 8 4 338 310 308 327 330 277 266 253 251 251 256 257 255 276 272 268 276 273 276 299 291 279 274 268 244 244 236 235 242 245 248 252 250
348 348 350 345 340 349 289 275 314 323 321 337 332 315 312 319 311 274 267 274 271 268 271 267 267 277 281 272 283 291 289 301 272 228 231 252 266 266 258 251 249 243 242 244
338 335 323 321 341 354 345 274 287 303 293 304 317 323 307 309 309 288 279 277 286 275 275 272 268 272 278 277 273 278 285 291 260 237 248 268 277 274 277 273 278 254 244 245
Wind_Speed_850mb
39 32 13 15 17 14 17 23 19 22 21 19 25 25 39 73 71 70 78 85 93 99 97 97 101 103 107 111 114 114 120 117 111 100 70 64 52 40 36 34 31 35 33 27
16 22 31 22 28 26 34 4 6 11 13 13 31 12 26 59 70 70 70 77 87 93 92 95 94 96 99 102 107 113 113 119 96 68 49 53 49 48 44 39 34 37 44 34
33 12 13 8 21 13 12 9 14 11 20 14 9 14 37 57 75 84 77 68 68 72 71 73 78 77 79 88 94 102 98 103 95 72 53 83 75 70 51 42 40 50 44 39
23 12 13 20 2 14 23 5 4 9 4 21 37 71 59 70 92 71 57 46 40 35 30 29 26 41 57 68 78 89 90 93 93 82 91 68 80 80 55 47 48 48 47 39
15 15 5 9 10 8 12 10 7 10 8 9 20 24 8 45 51 54 49 40 30 25 19 7 16 31 39 54 67 80 89 87 78 69 85 64 68 77 62 46 51 46 46 40
6 15 12 3 20 30 14 6 16 14 7 12 31 19 9 36 40 36 29 24 24 16 9 12 15 25 37 51 63 71 76 76 78 63 78 74 60 53 57 50 53 52 48 48
3 9 5 16 35 21 12 9 30 16 10 12 12 5 22 27 24 25 21 15 6 6 10 17 25 17 41 43 49 58 57 58 58 59 51 58 54 46 46 53 62 61 55 56
6 10 4 37 7 13 2 12 31 49 60 70 61 50 46 35 27 15 8 7 10 17 27 33 28 31 32 37 37 41 38 43 56 54 51 49 42 36 42 49 80 61 57 57
5 9 4 21 16 28 17 18 43 69 63 71 72 60 50 39 26 18 15 15 24 20 29 43 41 29 26 30 32 34 43 48 52 41 35 33 30 46 60 41 49 61 53 46
5 3 6 28 27 30 43 53 53 49 46 44 48 46 48 43 36 34 32 30 30 28 31 36 29 20 18 26 26 29 39 43 39 37 32 38 44 29 53 47 51 39 32 35
4 5 11 32 39 41 43 32 37 35 33 30 27 29 33 30 35 23 32 28 23 20 23 26 19 18 21 23 22 26 26 22 18 34 30 38 26 23 32 37 36 34 27 25
9 15 29 25 36 39 34 38 35 29 32 42 39 33 17 13 24 26 16 13 15 10 12 9 22 32 29 30 32 38 29 21 34 39 34 28 32 38 44 35 28 24 17 19
18 40 60 41 37 38 34 37 36 34 35 34 38 36 22 11 11 12 9 11 17 21 20 24 31 26 29 32 33 30 25 14 13 18 24 27 25 30 30 25 17 18 19 18
49 41 47 39 36 42 41 37 29 29 27 30 30 26 24 21 21 14 14 25 27 25 22 24 23 28 32 27 27 26 24 24 25 21 24 21 17 17 15 16 15 16 17 16
55 51 51 44 34 34 27 20 21 22 21 22 28 29 26 18 14 18 16 20 23 25 28 31 34 31 27 25 16 8 22 24 22 25 22 19 15 12 12 14 14 16 15 11
46 42 34 30 27 26 26 26 29 30 33 34 34 36 35 28 16 15 16 24 31 35 32 30 29 29 24 21 21 18 19 22 23 20 12 12 14 15 15 14 15 16 13 11
27 34 27 26 24 24 26 27 27 29 33 34 34 32 35 34 26 13 16 24 32 33 30 26 29 28 26 25 30 27 26 28 21 20 18 14 14 14 11 11 9 9 9 10
25 18 16 15 20 26 31 35 35 37 41 39 36 34 37 37 26 17 13 20 28 37 25 23 28 35 44 36 37 34 29 26 26 27 23 20 17 15 15 19 17 8 8 14
17 14 15 17 18 20 26 30 32 34 37 33 37 37 38 32 19 8 12 12 12 16 21 27 37 31 25 28 24 25 22 24 29 32 28 24 23 19 18 18 18 18 24 21
25 19 15 15 15 19 22 16 16 18 16 25 29 31 30 16 3 5 7 4 7 11 13 13 17 16 13 14 15 18 19 24 29 28 28 23 20 25 22 17 16 21 25 26
22 23 23 24 19 21 17 15 16 18 19 20 23 16 2 1 2 5 9 6 2 9 7 7 9 10 11 17 13 16 22 21 19 20 22 24 22 23 23 20 20 16 18 23
21 20 20 20 21 20 22 22 23 13 13 16 16 11 2 9 14 7 8 7 4 3 3 3 6 9 12 10 4 9 17 19 25 25 24 27 30 29 25 26 28 25 22 25
19 20 20 21 22 22 18 20 20 15 12 11 9 7 5 6 5 4 6 6 7 7 5 8 4 7 10 14 17 18 19 18 15 12 24 36 40 37 35 32 27 26 21 23
19 17 18 18 17 19 17 16 14 11 10 9 10 7 6 5 5 5 6 10 7 8 8 1 4 4 13 20 21 23 25 27 24 28 28 28 30 31 29 28 27 23 20 23
22 19 16 20 20 11 9 14 14 14 9 7 9 7 7 9 9 12 12 11 9 11 12 13 10 9 12 16 20 22 23 32 36 36 27 21 23 26 29 28 28 26 23 25
30 31 27 31 24 20 8 9 15 16 12 13 12 10 12 15 14 14 16 16 20 20 22 21 21 18 15 16 16 19 27 24 19 24 20 17 20 24 27 30 34 35 34 32
29 25 34 21 19 11 11 10 16 16 12 14 18 16 18 19 17 17 22 22 21 23 26 29 28 27 27 23 21 22 23 23 20 22 24 28 32 32 34 25 25 39 40 39
Wind_Direction_850mb
227 216 197 240 245 183 191 200 179 219 199 216 205 199 199 203 207 202 207 210 214 218 222 227 230 230 234 238 239 238 231 225 222 217 220 220 218 216 217 214 218 246 244 239
218 210 198 223 246 238 224 202 140 131 229 237 202 165 163 187 189 194 198 205 210 216 222 225 231 234 238 240 242 242 236 227 218 212 204 229 238 233 220 213 222 235 243 246
230 182 171 235 231 204 197 164 153 147 215 158 184 196 192 191 192 196 198 202 206 211 220 228 233 241 248 248 247 245 236 227 218 206 240 234 229 229 224 212 230 236 238 242
213 105 197 245 267 187 129 104 87 279 201 184 191 202 202 196 195 197 196 191 192 195 205 221 241 253 256 257 258 248 235 225 219 214 258 237 222 225 227 228 233 239 243 249
168 182 159 331 32 47 358 165 205 198 207 216 148 162 213 203 192 179 176 175 177 180 188 199 276 272 269 262 260 248 236 234 241 239 230 217 224 227 232 239 246 244 255 256
138 146 167 314 327 328 307 340 21 22 69 134 127 172 226 193 185 174 174 169 170 179 194 239 282 292 282 262 253 253 242 237 229 227 224 218 232 231 237 245 252 250 259 264
12 107 90 0 313 311 76 239 335 25 53 97 83 99 98 137 138 142 146 154 171 258 265 262 259 263 288 263 257 256 254 247 231 233 242 233 245 258 262 262 265 255 262 262
334 70 1 345 11 79 328 41 91 77 78 80 79 67 63 68 68 79 63 353 314 299 289 280 271 281 266 263 261 254 242 237 228 241 245 242 241 269 276 284 285 262 271 275
229 169 253 349 31 67 69 58 66 71 70 71 69 61 50 42 25 5 352 329 300 308 302 278 270 267 258 246 237 226 223 221 225 226 228 232 250 265 240 284 262 272 273 276
196 242 129 63 74 72 68 65 65 62 61 60 51 39 40 26 18 12 356 348 332 325 293 265 242 232 219 213 207 213 210 214 222 228 217 238 266 255 251 257 271 273 275 274
37 101 103 83 83 72 67 66 61 51 31 12 356 9 5 343 351 355 347 345 324 296 259 228 204 187 188 197 212 203 173 176 200 208 229 245 239 259 265 269 262 266 258 252
218 183 120 107 92 85 73 64 61 54 38 49 53 55 24 311 267 284 302 308 0 300 209 163 180 181 180 184 176 159 163 230 251 230 229 237 253 282 265 258 247 249 247 255
152 105 97 94 96 104 108 87 76 77 67 55 52 50 36 18 333 316 238 249 202 195 195 192 184 185 190 184 183 200 244 240 196 207 245 272 267 266 256 262 249 242 251 267
115 109 76 103 91 95 98 91 92 82 58 42 39 36 34 23 16 347 275 217 213 212 214 207 203 202 200 213 229 230 215 217 230 244 259 254 246 243 232 237 254 256 272 281
98 102 102 97 89 73 65 51 34 24 5 348 2 11 19 15 1 341 295 251 242 229 212 208 203 215 220 197 182 236 231 227 234 239 249 256 246 216 224 247 255 261 258 265
95 90 85 75 55 39 21 6 355 345 331 329 328 327 336 345 341 342 320 247 227 213 207 218 219 199 187 195 213 224 220 225 245 253 245 222 242 259 234 241 251 249 252 274
89 47 40 32 11 353 343 326 311 307 306 307 311 322 325 322 325 307 312 262 227 222 224 219 197 204 203 224 247 245 250 258 269 261 264 249 257 228 234 234 230 237 257 245
61 52 27 353 328 319 311 298 295 296 292 296 301 307 310 323 311 300 280 268 241 222 236 230 231 233 232 248 241 242 237 259 262 244 242 233 221 224 257 217 204 218 219 240
21 6 346 336 330 316 308 311 314 298 290 296 299 295 299 302 284 257 242 227 238 248 248 233 225 235 235 233 233 242 251 262 253 253 234 223 208 226 221 225 239 258 257 265
44 34 25 13 354 343 346 357 342 341 339 318 314 297 280 268 240 152 168 227 254 252 243 234 224 236 230 266 273 274 253 248 243 238 232 221 229 219 224 230 274 277 260 254
46 41 38 33 34 29 19 357 348 354 8 24 28 29 63 176 299 196 169 124 194 251 240 224 244 253 267 280 274 260 246 241 231 230 228 226 214 221 230 249 272 272 253 256
23 18 26 27 27 37 34 31 25 41 53 38 39 28 27 174 170 221 193 153 210 202 189 245 269 262 260 242 236 231 213 231 233 234 223 214 220 231 253 260 257 251 261 252
24 23 24 19 17 21 24 26 33 43 44 46 46 57 70 108 99 46 299 240 154 143 150 5 323 279 269 251 256 252 233 231 244 254 247 243 247 249 252 249 253 250 258 252
8 3 6 6 11 18 23 30 32 29 20 26 30 39 27 314 237 234 223 203 204 203 218 259 347 314 277 267 261 264 268 267 273 270 267 265 248 241 232 236 249 254 250 239
3 0 345 342 341 335 5 15 10 8 4 338 310 308 327 330 277 266 253 251 251 256 257 255 276 272 268 276 273 276 299 291 279 274 268 244 244 236 235 242 245 248 252 250
348 348 350 345 340 349 289 275 314 323 321 337 332 315 312 319 311 274 267 274 271 268 271 267 267 277 281 272 283 291 289 301 272 228 231 252 266 266 258 251 249 243 242 244
338 335 323 321 341 354 345 274 287 303 293 304 317 323 307 309 309 288 279 277 286 275 275 272 268 272 278 277 273 278 285 291 260 237 248 268 277 274 277 273 278 254 244 245